Les Mûrs

France     48˚20′59″N   2˚29′35″W
temp.,
°C
wind,
m/s
gust,
m/s
humid.,
%
clouds,
%
prec.,
mm/h
press.,
hPa
HPBL,
m
28 november, sat
sat2801:00+8˚se389674 0.0 1011214
04:00+8˚se369761 0.0 1011141
07:00+7˚se369638 0.0 1012109
10:00+8˚ese37947 0.0 1013197
13:00+13˚ese46763 0.0 1013291
16:00+13˚ene48770 0.0 1013363
19:00+9˚ene4109045 0.0 1015230
22:00+8˚ene489117 0.0 1017185
29 november, sun
sun2901:00+6˚ene37879 0.0 1017141
04:00+5˚ene36700 0.0 1019108
07:00+5˚ne46690 0.0 1020108
10:00+6˚ne47690 0.0 1022177
13:00+10˚ne47610 0.0 1022318
16:00+10˚ne46690 0.0 1022312
19:00+6˚nne48840 0.0 1024144
22:00+5˚ne36860 0.0 1025107
30 november, mon
mon3001:00+5˚ne33830 0.0 102760
04:00+5˚nne23832 0.0 102735
07:00+5˚n228316 0.0 102722
10:00+6˚n228362 0.0 102834
13:00+11˚n237157 0.0 1028258
16:00+11˚wnw227943 0.0 102840
19:00+8˚wnw349171 0.0 102879
22:00+8˚nw3993100 0.0 1028266
1 december, tue
tue101:00+9˚wnw41090100 0.0 1027442
04:00+9˚wnw41092100 0.0 1026542
07:00+10˚nw41196100 0.5 1025484
10:00+11˚n51092100 0.7 1025660
13:00+11˚n61079100 0.9 1025840
16:00+9˚nne5876100 0.0 1025857
19:00+6˚n3881100 0.0 1026231
22:00+6˚nne2785100 0.0 1026269
2 december, wed
wed201:00+6˚nne2281100 0.0 102648
04:00+5˚nw1281100 0.0 102522
07:00+4˚wnw128381 0.0 102422
10:00+6˚wnw227995 0.0 102499
13:00+10˚wnw247579 0.0 1023481
16:00+10˚wnw248373 0.1 1021338
19:00+9˚wnw379187 0.2 1020257
22:00+8˚w349199 0.1 1019138